Location: ?????
(38.3715°N, 23.0573°E)
Time: 20:01:31
(UTC+00:00)

ARIANE 5 R/B - Pass Details

Date: 03 August 2024
Orbit: 616 x 651 km, 98.0° (Epoch: 11 September)

Event Time Altitude Azimuth Distance (km) Brightness Sun altitude
Exits shadow 20:48:04 29° 30° (NNE) 1,184 4.2 -29.1°
Drops below altitude 10° 20:50:45 10° 4° (N) 2,063 5.9 -29.4°
Sets 20:53:05 0° 357° (N) 2,976 7.0 -29.6°
